This is the latest recevied weather packets stored in our database for station/object KQ4WWD. If no packets are shown the sender has not sent any weather packets the latest 10 day(s).
| Time | Temp. | Humidity | Pressure | Rain* | Wind** | Luminosity | Snow |
|---|---|---|---|---|---|---|---|
| 1777743991 | 28.33° C | 74% | 1010.4 hPa | 0 mm | - | 20 W/m² | - |
| 1777743687 | 28.33° C | 73% | 1010.3 hPa | 0 mm | - | 37 W/m² | - |
| 1777743384 | 28.89° C | 72% | 1010.3 hPa | 0 mm | - | 40 W/m² | - |
| 1777743082 | 28.89° C | 72% | 1010.3 hPa | 0 mm | - | 52 W/m² | - |
| 1777742779 | 28.89° C | 71% | 1010.4 hPa | 0 mm | - | 72 W/m² | - |
| 1777742476 | 29.44° C | 70% | 1010.3 hPa | 0 mm | - | 103 W/m² | - |
| 1777742171 | 29.44° C | 70% | 1010.1 hPa | 0 mm | - | 101 W/m² | - |
| 1777741868 | 29.44° C | 69% | 1010 hPa | 0 mm | - | 139 W/m² | - |
| 1777741565 | 30° C | 67% | 1010.1 hPa | 0 mm | - | 187 W/m² | - |
| 1777741262 | 30° C | 67% | 1010.1 hPa | 0 mm | - | 265 W/m² | - |
| 1777740959 | 30° C | 66% | 1010.1 hPa | 0 mm | - | 269 W/m² | - |
| 1777740656 | 30.56° C | 66% | 1010 hPa | 0 mm | - | 330 W/m² | - |
| 1777740352 | 30.56° C | 66% | 1010.2 hPa | 0 mm | - | 498 W/m² | - |
| 1777740049 | 30.56° C | 66% | 1010.3 hPa | 0 mm | - | 606 W/m² | - |
| 1777739745 | 30.56° C | 66% | 1010.2 hPa | 0 mm | - | 673 W/m² | - |
| 1777739442 | 30° C | 68% | 1010.1 hPa | 0 mm | - | 652 W/m² | - |
| 1777739139 | 30° C | 68% | 1010.4 hPa | 0 mm | - | 661 W/m² | - |
| 1777738836 | 30° C | 69% | 1010.2 hPa | 0 mm | - | 689 W/m² | - |
| 1777738532 | 29.44° C | 69% | 1010.4 hPa | 0 mm | - | 394 W/m² | - |
| 1777738230 | 29.44° C | 69% | 1010 hPa | 0 mm | - | 309 W/m² | - |
| 1777737928 | 28.89° C | 70% | 1009.8 hPa | 0 mm | - | 268 W/m² | - |
| 1777737626 | 28.89° C | 71% | 1010.1 hPa | 0 mm | - | 332 W/m² | - |
| 1777737325 | 28.89° C | 72% | 1010.1 hPa | 0 mm | - | 244 W/m² | - |
| 1777737021 | 28.33° C | 73% | 1009.9 hPa | 0 mm | - | 273 W/m² | - |
| 1777736716 | 28.33° C | 73% | 1010 hPa | 0 mm | - | 308 W/m² | - |
* Rain latest hour (hover to see other rain measurements)
** Current wind speed in m/s (hover to see current wind gust speed)